Tracking 29892 objects as of 21-Nov-2024
HD Live streaming from Space Station
objects crossing your sky now

STARLINK-5595

Track STARLINK-5595 now!
10-day predictions
STARLINK-5595 is classified as:


NORAD ID: 55765
Int'l Code: 2023-028AA
Perigee: 577.1 km
Apogee: 581.3 km
Inclination: 70.0 °
Period: 96.1 minutes
Semi major axis: 6950 km
RCS: Unknown
Launch date: March 3, 2023
Source: United States (US)
Launch site: AIR FORCE WESTERN TEST RANGE (AFWTR)
Your satellite tracking list
Your tracking list is empty




NASA's NSSDC Master Catalog

Two Line Element Set (TLE):
1 55765U 23028AA  24325.05603269 -.00000104  00000-0 -94465-6 0  9991
2 55765  69.9989 341.3339 0002966 269.6578  90.4242 14.98330199 95431
Source of the keplerian elements: AFSPC